Location: Vlissingen
(51.4500°N, 3.5830°E)
Time: 10:32:12
(UTC+02:00)

Envisat - Pass Details

Date: 23 May 2024
Orbit: 762 x 764 km, 98.3° (Epoch: 13 June)

Event Time Altitude Azimuth Distance (km) Brightness Sun altitude
Rises 03:31:40 0° 30° (NNE) 3,240 8.2 -14.0°
Reaches altitude 10° 03:35:31 10° 60° (ENE) 2,306 6.4 -13.8°
Maximum altitude 03:37:36 12° 84° (E) 2,137 5.8 -13.6°
Drops below altitude 10° 03:39:41 10° 109° (ESE) 2,299 5.6 -13.5°
Sets 03:43:29 0° 138° (SE) 3,217 6.0 -13.2°
